Location: Brno
(49.2000°N, 16.6330°E)
Time: 18:14:23
(UTC+02:00)

Transit 4A - Pass Details

Date: 28 July 2021
Orbit: 871 x 974 km, 66.8° (Epoch: 16 September)

Event Time Altitude Azimuth Distance (km) Brightness Sun altitude
Rises 10:38:41 0° 322° (NW) 3,474 10.5 48.5°
Reaches altitude 10° 10:41:12 10° 318° (NW) 2,538 9.9 48.9°
Maximum altitude 10:46:54 57° 242° (WSW) 1,043 8.7 49.6°
Drops below altitude 10° 10:52:43 10° 165° (SSE) 2,573 10.9 50.4°
Sets 10:55:16 0° 161° (SSE) 3,525 11.4 50.7°
